Time,TemperatureF,DewpointF,PressureIn,WindDirection,WindDirectionDegrees,WindSpeedMPH,WindSpeedGustMPH,Humidity,HourlyPrecipIn,Conditions,Clouds,dailyrainin,SoftwareType,DateUTC
2013-11-04 00:23:00,46.0,37.0,-100.00,SSE,155,0.0,0.0,69,-99.99,,,-99.99,,2013-11-04 06:23:00,
2013-11-04 00:52:00,46.0,37.0,-100.00,SSE,165,0.0,0.0,70,-99.99,,,-99.99,,2013-11-04 06:52:00,
2013-11-04 01:22:00,46.0,38.0,-100.00,SE,145,0.0,0.0,74,-99.99,,,-99.99,,2013-11-04 07:22:00,
2013-11-04 01:52:00,46.0,39.0,-100.00,SSE,150,0.0,0.0,76,-99.99,,,-99.99,,2013-11-04 07:52:00,
2013-11-04 02:21:00,45.0,39.0,-100.00,SE,135,0.0,0.0,78,-99.99,,,-99.99,,2013-11-04 08:21:00,
2013-11-04 02:52:00,45.0,39.0,-100.00,SE,140,0.0,0.0,78,-99.99,,,-99.99,,2013-11-04 08:52:00,
2013-11-04 03:21:00,45.0,39.0,-100.00,SE,135,0.0,0.0,79,-99.99,,,-99.99,,2013-11-04 09:21:00,
2013-11-04 03:53:00,46.0,40.0,-100.00,SE,145,0.0,0.0,79,-99.99,,,-99.99,,2013-11-04 09:53:00,
2013-11-04 04:23:00,45.0,40.0,-100.00,SE,140,0.0,0.0,80,-99.99,,,-99.99,,2013-11-04 10:23:00,
2013-11-04 04:52:00,45.0,39.0,-100.00,SSE,165,0.0,0.0,81,-99.99,,,-99.99,,2013-11-04 10:52:00,
2013-11-04 05:22:00,45.0,40.0,-100.00,SSE,165,0.0,0.0,82,-99.99,,,-99.99,,2013-11-04 11:22:00,
2013-11-04 05:52:00,46.0,40.0,-100.00,South,170,0.0,0.0,81,-99.99,,,-99.99,,2013-11-04 11:52:00,
2013-11-04 06:22:00,46.0,41.0,-100.00,SSE,155,0.0,0.0,82,-99.99,,,-99.99,,2013-11-04 12:22:00,
2013-11-04 06:52:00,46.0,41.0,-100.00,South,175,0.0,0.0,82,-99.99,,,-99.99,,2013-11-04 12:52:00,
2013-11-04 07:21:00,46.0,41.0,-100.00,South,170,0.0,0.0,81,-99.99,,,-99.99,,2013-11-04 13:21:00,
2013-11-04 07:52:00,47.0,41.0,-100.00,South,190,0.0,0.0,80,-99.99,,,-99.99,,2013-11-04 13:52:00,
2013-11-04 08:22:00,48.0,41.0,-100.00,South,180,0.0,0.0,78,-99.99,,,-99.99,,2013-11-04 14:22:00,
2013-11-04 08:52:00,49.0,42.0,-100.00,South,185,0.0,0.0,76,-99.99,,,-99.99,,2013-11-04 14:52:00,
2013-11-04 09:22:00,51.0,42.0,-100.00,SSW,200,0.0,0.0,70,-99.99,,,-99.99,,2013-11-04 15:22:00,
2013-11-04 10:23:00,54.0,42.0,-100.00,SSW,195,0.0,0.0,65,-99.99,,,-99.99,,2013-11-04 16:23:00,
2013-11-04 10:53:00,56.0,43.0,-100.00,SSW,210,0.0,0.0,62,-99.99,,,-99.99,,2013-11-04 16:53:00,
2013-11-04 11:22:00,54.0,42.0,-100.00,SW,220,0.0,0.0,64,-99.99,,,-99.99,,2013-11-04 17:22:00,
2013-11-04 11:53:00,53.0,42.0,-100.00,SSW,205,0.0,0.0,66,-99.99,,,-99.99,,2013-11-04 17:53:00,
2013-11-04 12:23:00,54.0,43.0,-100.00,SSW,205,0.0,0.0,66,-99.99,,,-99.99,,2013-11-04 18:23:00,
2013-11-04 12:52:00,54.0,43.0,-100.00,SSW,205,0.0,0.0,67,-99.99,,,-99.99,,2013-11-04 18:52:00,
2013-11-04 13:22:00,54.0,44.0,-100.00,SSW,210,0.0,0.0,67,-99.99,,,-99.99,,2013-11-04 19:22:00,
2013-11-04 13:52:00,54.0,44.0,-100.00,SSW,195,0.0,0.0,68,-99.99,,,-99.99,,2013-11-04 19:52:00,
2013-11-04 14:22:00,56.0,45.0,-100.00,SSW,200,0.0,0.0,66,-99.99,,,-99.99,,2013-11-04 20:22:00,
2013-11-04 14:52:00,58.0,46.0,-100.00,SSW,195,0.0,0.0,63,-99.99,,,-99.99,,2013-11-04 20:52:00,
2013-11-04 15:22:00,59.0,46.0,-100.00,SSW,205,0.0,0.0,62,-99.99,,,-99.99,,2013-11-04 21:22:00,
2013-11-04 15:54:00,58.0,46.0,-100.00,SSW,210,0.0,0.0,63,-99.99,,,-99.99,,2013-11-04 21:54:00,
2013-11-04 16:23:00,58.0,46.0,-100.00,SSW,205,0.0,0.0,64,-99.99,,,-99.99,,2013-11-04 22:23:00,
2013-11-04 16:53:00,57.0,45.0,-100.00,SSW,205,0.0,0.0,66,-99.99,,,-99.99,,2013-11-04 22:53:00,
2013-11-04 17:22:00,56.0,45.0,-100.00,SSW,210,0.0,0.0,67,-99.99,,,-99.99,,2013-11-04 23:22:00,
2013-11-04 17:53:00,55.0,46.0,-100.00,SSW,200,0.0,0.0,70,-99.99,,,-99.99,,2013-11-04 23:53:00,
2013-11-04 18:22:00,55.0,46.0,-100.00,South,185,0.0,0.0,71,-99.99,,,-99.99,,2013-11-05 00:22:00,
2013-11-04 18:52:00,55.0,46.0,-100.00,SSE,165,0.0,0.0,73,-99.99,,,-99.99,,2013-11-05 00:52:00,
2013-11-04 19:21:00,55.0,46.0,-100.00,SSE,165,0.0,0.0,73,-99.99,,,-99.99,,2013-11-05 01:21:00,
2013-11-04 19:52:00,54.0,46.0,-100.00,SSW,200,0.0,0.0,74,-99.99,,,-99.99,,2013-11-05 01:52:00,
2013-11-04 20:22:00,54.0,47.0,-100.00,South,190,0.0,0.0,76,-99.99,,,-99.99,,2013-11-05 02:22:00,
2013-11-04 20:52:00,54.0,47.0,-100.00,SW,215,0.0,0.0,76,-99.99,,,-99.99,,2013-11-05 02:52:00,
2013-11-04 21:22:00,54.0,47.0,-100.00,SW,215,0.0,0.0,77,-99.99,,,-99.99,,2013-11-05 03:22:00,
2013-11-04 21:54:00,54.0,47.0,-100.00,SSW,200,0.0,0.0,77,-99.99,,,-99.99,,2013-11-05 03:54:00,
2013-11-04 22:23:00,54.0,47.0,-100.00,SSW,195,0.0,0.0,77,-99.99,,,-99.99,,2013-11-05 04:23:00,
2013-11-04 22:53:00,54.0,48.0,-100.00,SSW,200,0.0,0.0,78,-99.99,,,-99.99,,2013-11-05 04:53:00,
2013-11-04 23:23:00,54.0,48.0,-100.00,SSW,205,0.0,0.0,79,-99.99,,,-99.99,,2013-11-05 05:23:00,
2013-11-04 23:54:00,54.0,48.0,-100.00,SW,215,0.0,0.0,79,-99.99,,,-99.99,,2013-11-05 05:54:00,